CDT,Max TemperatureF,Mean TemperatureF,Min TemperatureF,Max Dew PointF,MeanDew PointF,Min DewpointF,Max Humidity, Mean Humidity, Min Humidity, Max Sea Level PressureIn, Mean Sea Level PressureIn, Min Sea Level PressureIn, Max VisibilityMiles, Mean VisibilityMiles, Min VisibilityMiles, Max Wind SpeedMPH, Mean Wind SpeedMPH, Max Gust SpeedMPH,PrecipitationIn, CloudCover, Events, WindDirDegrees
2013-7-1,78,68,57,57,54,50,88,60,36,30.18,30.14,30.11,10,10,7,15,8,22,0.00,0,,34
2013-7-2,80,70,59,59,55,46,94,61,32,30.14,30.10,30.05,10,10,6,14,6,18,0.00,1,,16
2013-7-3,78,68,57,57,54,52,88,59,39,30.10,30.06,30.00,10,10,10,10,5,13,0.00,2,,137
2013-7-4,84,72,59,59,56,52,88,60,37,30.05,30.01,29.97,10,10,9,16,9,23,0.00,1,,177
2013-7-5,86,74,62,61,59,57,82,58,37,30.02,29.97,29.93,10,10,9,23,11,29,0.00,0,,170
2013-7-6,89,78,66,66,63,61,83,61,40,29.98,29.94,29.89,10,10,10,18,12,25,0.00,0,,166
2013-7-7,89,79,69,70,67,64,88,67,46,29.93,29.91,29.87,10,10,7,17,10,23,0.00,2,,186
2013-7-8,89,80,71,72,69,66,94,70,46,29.99,29.96,29.89,10,10,3,13,5,13,0.00,2,Rain,344
2013-7-9,87,80,71,75,72,68,100,80,58,29.98,29.92,29.88,10,8,1,17,8,22,0.32,2,Rain,215
2013-7-10,78,72,62,68,58,54,88,64,42,30.08,30.02,29.93,10,10,9,21,11,28,0.00,1,,337
2013-7-11,80,70,59,61,57,54,94,64,39,30.15,30.11,30.06,10,9,5,13,3,18,0.00,0,,152
2013-7-12,82,72,62,61,59,55,83,62,45,30.12,30.07,30.03,10,10,10,20,11,26,0.00,0,,160
2013-7-13,71,66,62,63,59,55,94,77,60,30.17,30.09,30.04,10,9,3,22,10,28,0.26,3,Rain,143
2013-7-14,84,73,62,66,63,59,88,72,51,30.23,30.17,30.12,10,10,8,15,9,16,0.00,1,,141
2013-7-15,87,76,64,72,67,61,94,74,58,30.28,30.24,30.20,10,9,3,13,6,16,0.00,1,,124
2013-7-16,89,80,71,73,71,70,94,76,52,30.28,30.26,30.23,10,10,6,12,8,21,0.00,1,,180
2013-7-17,91,81,71,73,71,66,94,71,46,30.32,30.27,30.19,10,10,5,10,5,16,0.00,0,,199
2013-7-18,91,81,71,72,69,66,94,66,43,30.19,30.07,29.92,10,10,3,20,9,26,0.00,0,,211
2013-7-19,89,78,68,70,65,57,78,61,37,29.93,29.87,29.84,10,10,10,20,10,26,0.00,1,,274
2013-7-20,84,72,60,66,62,57,94,68,42,29.98,29.94,29.90,10,10,7,10,4,14,0.00,1,,295
2013-7-21,82,73,64,68,64,57,94,76,45,29.95,29.90,29.85,10,10,8,16,5,25,0.00,2,Rain,137
2013-7-22,89,76,64,73,66,59,100,82,52,29.89,29.80,29.70,10,8,0,18,9,25,0.05,3,Fog-Rain,192
2013-7-23,77,68,59,63,54,50,94,65,39,30.03,29.94,29.83,10,10,10,17,10,21,0.00,0,,359
2013-7-24,77,66,55,57,53,50,88,65,41,30.10,30.06,30.03,10,10,9,8,5,12,0.00,3,,112
2013-7-25,86,72,59,63,59,54,94,73,42,30.05,30.02,29.97,10,9,0,21,9,33,1.47,2,Rain,201
2013-7-26,71,65,59,64,58,52,100,76,56,30.05,29.99,29.95,10,9,2,24,13,32,0.01,6,,289
2013-7-27,64,57,50,52,47,45,88,72,49,30.07,30.02,29.96,10,10,10,20,10,25,0.00,5,,318
2013-7-28,69,58,48,54,49,45,93,69,46,30.08,30.01,29.95,10,10,9,15,8,18,0.00,3,,321
2013-7-29,75,62,50,57,53,48,94,69,47,30.17,30.13,30.08,10,10,9,12,3,20,0.00,1,,153
2013-7-30,73,66,60,63,60,55,94,76,69,30.12,30.10,30.07,10,10,4,10,7,17,0.00,8,,135
2013-7-31,78,69,60,64,61,57,94,75,51,30.11,30.08,30.03,10,8,1,16,5,20,0.00,4,,297